COSMOS 2084

Last updated on Wed Jul 09 2025 00:02:13 GMT+0000 (Coordinated Universal Time)

1 20663U 90055A 25189.42535181 .00001587 00000+0 12584-3 0 9993 2 20663 62.7909 87.4524 0057772 156.7112 203.6625 15.03769304899562
UTC large
Height (km)
Speed (km/s)
/
Latitude / Longitude
Inclination (degrees)
Orbital Period (minutes)
Azimuth
Elevation
Range (km)
Doppler Factor

Next 0 passes for location: London (51.5072 / 0.1276)

Sorry there are no passes over London.